GEFSSGP_con_maxscp_108.txt.gz
SCP
0 0 0 0 0 0 0 0 0 0 0 0 0 0 0 0 0 0 0 1 1 2 2 2 2 2 1 1 2 2 1 2 2 1 1 1 1 1 1 1 0 0 0 0 0 0 0 0 0
0 0 0 0 0 0 0 0 0 0 0 0 0 0 0 0 0 0 0 1 1 1 2 2 2 1 1 1 1 1 1 2 2 1 1 1 1 1 1 1 0 0 0 0 0 0 0 0 0
0 0 0 0 0 0 0 0 0 0 0 0 0 0 0 1 1 0 1 1 1 1 2 2 2 1 1 1 1 1 1 1 1 1 1 1 1 1 1 1 0 0 0 0 0 0 0 0 0
0 0 0 0 0 0 0 0 0 0 0 0 0 0 1 1 1 1 1 1 1 1 1 2 2 2 1 1 1 1 1 1 1 1 1 1 1 1 1 1 0 0 0 0 0 0 0 0 0
0 0 0 0 0 1 1 1 1 0 0 0 0 1 1 1 1 1 1 1 1 1 1 2 2 2 1 1 1 1 1 1 1 1 1 1 1 1 1 1 0 0 0 0 0 0 0 0 0
0 0 0 0 0 0 1 1 1 1 1 1 1 1 1 1 1 1 1 1 1 2 2 2 2 2 2 2 1 1 1 1 1 1 1 1 1 1 1 1 1 0 0 1 1 0 0 0 0
0 0 0 0 0 0 1 1 1 1 1 1 1 1 1 2 2 2 2 2 2 2 2 2 2 2 2 2 2 2 2 2 1 1 1 1 1 1 1 1 1 1 1 1 1 1 1 0 0
0 0 0 0 0 0 1 1 1 1 1 1 2 2 2 2 2 2 2 2 2 2 2 2 2 2 2 2 2 2 2 2 2 2 1 1 1 1 1 1 1 1 1 1 1 1 1 1 1
0 0 0 0 0 0 1 1 1 1 2 2 2 3 3 3 3 3 3 2 2 2 2 2 2 2 2 2 2 2 2 2 2 2 2 2 1 1 1 2 2 1 1 1 1 1 1 1 1
0 0 0 0 0 0 1 1 1 1 2 2 2 3 3 3 3 3 3 3 3 3 3 2 2 2 2 2 2 2 2 2 2 3 3 3 3 2 2 2 2 2 1 1 1 1 1 1 1
0 0 0 0 0 0 1 1 1 2 2 3 3 4 4 3 3 4 4 3 3 3 3 3 3 3 3 3 3 3 2 3 3 4 4 4 4 4 3 3 2 2 2 2 2 2 2 2 2
0 0 0 0 0 0 1 1 2 2 3 3 4 4 4 4 4 4 3 3 3 3 3 3 3 3 3 3 3 3 3 3 4 4 4 4 4 4 3 3 3 3 3 2 2 2 2 2 2
0 0 0 0 0 1 1 1 2 3 3 3 4 4 4 4 4 4 3 3 3 3 3 3 3 4 4 4 3 3 3 3 4 3 3 3 3 3 3 3 3 4 4 3 3 2 2 2 2
0 0 0 0 0 1 1 2 2 3 3 3 3 4 4 4 4 4 3 3 4 4 3 3 3 4 4 4 3 3 3 3 3 3 2 2 2 3 3 3 3 3 4 3 3 2 2 2 2
0 0 0 0 0 1 1 2 2 3 3 3 4 4 5 4 4 3 3 4 4 4 3 3 3 3 3 3 3 3 3 3 3 3 2 2 3 3 2 2 2 3 3 3 3 2 2 2 2
0 0 0 0 0 0 1 2 2 2 2 3 3 4 4 4 3 3 3 4 4 3 2 2 3 3 3 3 3 3 3 3 3 2 2 2 2 2 2 2 2 2 3 3 3 3 2 2 2
0 0 0 0 0 0 1 1 2 2 2 2 3 3 3 3 3 3 3 4 4 3 2 2 3 4 4 4 3 3 3 3 2 2 1 2 2 2 2 2 2 2 2 3 3 3 2 2 2
0 0 0 0 0 0 1 1 2 2 2 2 2 3 3 3 2 2 3 3 3 3 3 3 4 4 4 3 3 3 3 2 2 1 1 1 1 2 2 2 2 2 2 2 2 2 2 2 2
0 0 0 0 0 0 1 1 2 2 2 2 2 3 3 2 2 2 2 2 2 3 3 3 3 3 3 2 2 2 2 1 1 1 1 1 1 1 1 1 1 1 1 1 1 2 2 2 2
0 0 0 0 0 1 1 1 2 2 2 2 2 2 3 2 2 2 2 2 2 2 2 2 2 2 2 2 2 2 1 1 1 1 1 1 1 1 1 1 1 1 1 1 1 1 1 1 1
0 0 0 0 1 1 1 1 2 2 2 2 2 3 3 2 2 2 2 2 2 2 2 2 2 2 1 1 1 1 1 1 1 1 1 1 1 1 1 1 1 1 1 1 1 1 1 1 1
0 0 0 0 1 1 1 1 1 2 2 2 2 3 3 2 2 1 1 1 1 1 1 1 1 1 1 1 1 1 1 1 1 1 1 1 1 1 1 1 1 1 1 1 2 2 2 1 1
0 0 0 0 0 0 0 1 1 2 3 2 3 3 2 2 1 1 1 1 1 1 1 1 1 1 1 1 1 1 1 1 1 1 1 1 1 1 1 2 2 2 2 2 2 2 2 1 1
0 0 0 0 0 0 0 1 1 2 2 2 3 2 2 2 1 1 1 1 1 1 1 1 1 1 1 1 1 1 1 1 1 1 1 1 1 1 1 1 2 2 2 2 2 2 2 2 2
0 0 0 0 0 0 1 1 1 2 2 2 2 2 2 1 1 1 1 1 1 1 1 1 1 1 1 1 1 1 1 1 1 1 1 1 1 1 1 1 2 2 2 2 2 2 2 2 2
0 0 0 0 0 0 1 1 1 2 2 2 2 1 1 1 1 1 1 1 1 1 1 1 1 1 1 1 1 2 1 1 1 1 1 2 2 1 1 2 2 2 2 2 2 2 2 2 2
0 0 0 0 0 0 0 1 1 2 2 2 1 1 1 1 1 1 1 1 1 1 1 1 1 1 1 1 1 1 1 1 1 1 1 1 1 1 1 1 2 2 2 2 2 2 2 2 2
0 0 0 0 0 0 0 0 1 1 1 1 1 1 1 1 1 1 1 1 1 1 1 1 1 1 1 1 1 1 0 0 0 0 0 0 1 0 0 1 1 1 1 1 1 1 1 1 1
0 0 0 0 0 0 0 0 1 1 1 1 1 1 1 1 1 1 0 0 1 1 1 1 0 0 0 0 0 0 0 0 0 0 0 0 0 0 0 0 0 0 0 1 1 1 1 1 1
0 0 0 0 0 0 0 0 1 1 1 1 1 1 1 1 1 0 0 0 0 0 0 0 0 0 0 0 0 0 0 0 0 0 0 0 0 0 0 0 0 0 0 0 0 0 0 0 0

GEFSSGP_con_maxscp_114.txt.gz
SCP
1 1 1 2 2 2 2 1 0 0 0 0 0 1 1 1 1 1 1 2 3 3 2 2 2 2 2 1 1 1 1 1 1 1 1 1 1 1 0 0 0 0 0 0 0 0 0 0 0
1 1 1 1 1 1 1 1 0 0 0 0 0 1 1 1 1 1 1 2 3 3 3 2 2 2 2 2 1 1 1 1 1 1 1 1 1 1 1 0 0 0 0 0 0 0 0 0 0
1 1 1 1 1 1 1 0 0 0 0 0 1 1 1 1 1 1 2 3 4 5 4 2 2 2 2 2 2 2 1 1 1 1 1 1 1 1 1 1 0 0 0 0 0 0 0 0 0
1 1 1 1 1 1 1 1 0 0 0 1 1 2 2 1 1 2 2 3 4 5 5 3 2 2 2 2 2 2 2 2 1 1 1 1 1 1 1 1 1 0 0 0 0 0 0 0 0
1 0 0 0 1 1 1 1 0 0 1 1 2 3 2 2 1 1 2 3 4 5 4 3 3 3 2 2 2 2 2 2 2 1 1 1 1 1 1 1 1 1 1 0 0 0 0 0 0
0 0 0 0 1 1 1 1 1 1 2 2 3 3 3 3 2 1 2 3 4 4 4 3 3 3 3 2 2 2 2 2 1 1 1 1 1 1 1 1 1 1 1 1 1 0 0 0 0
0 0 0 0 0 1 0 1 1 2 3 3 3 3 4 4 3 2 2 3 4 5 4 3 3 3 3 3 3 2 2 2 1 1 1 1 1 1 1 1 1 1 1 1 1 1 1 1 1
0 0 0 0 0 1 1 1 2 3 3 3 4 4 5 4 3 2 2 4 5 5 5 3 3 2 3 3 3 3 3 2 2 1 1 1 1 1 1 1 1 1 1 1 1 1 1 1 1
0 0 0 0 0 0 1 1 2 3 3 4 5 5 5 4 4 3 3 5 6 6 5 4 4 3 3 3 3 3 3 3 2 2 2 2 2 2 1 1 2 2 1 1 1 1 1 1 1
0 0 0 0 0 0 1 1 2 3 3 4 6 6 5 5 5 4 4 5 6 6 6 6 6 5 4 3 3 3 3 3 3 2 3 3 2 2 2 2 2 2 2 2 2 2 2 1 1
0 0 0 0 0 0 1 3 4 4 4 5 7 7 6 6 6 5 5 5 5 6 7 7 7 6 5 4 4 3 3 4 3 3 3 3 3 3 3 3 3 3 3 2 2 2 2 1 1
0 0 0 0 0 1 2 4 5 4 5 6 6 6 6 6 6 6 6 7 6 6 6 7 7 6 6 6 5 5 4 4 4 4 4 4 3 3 3 3 3 3 2 3 3 3 2 2 2
0 0 0 0 0 1 2 4 4 4 5 5 5 5 5 6 7 7 8 9 8 6 6 7 7 7 7 6 6 5 5 5 5 5 5 4 4 4 4 3 3 2 2 3 3 3 2 2 2
0 0 0 0 1 1 2 3 3 4 4 5 5 5 6 7 9 9 10 9 8 7 7 7 7 7 7 6 6 6 5 6 6 6 6 5 4 4 4 3 3 2 2 3 3 3 3 3 2
0 0 0 0 1 1 2 2 3 4 4 4 5 5 6 7 9 9 9 8 7 7 8 7 7 6 6 6 6 6 6 7 7 7 6 5 4 3 3 3 2 2 2 2 3 3 3 3 2
0 0 0 0 1 1 2 3 4 4 3 4 4 5 6 7 8 8 9 9 8 8 8 8 7 6 6 6 6 7 7 7 7 6 5 4 3 2 2 2 2 2 2 2 2 3 3 3 2
0 0 0 0 1 1 2 3 4 3 3 3 4 5 6 7 6 7 8 8 7 7 8 8 8 8 7 6 6 7 8 7 7 6 4 3 2 1 1 2 2 2 2 2 2 3 3 3 3
0 0 0 0 1 1 2 2 3 3 3 3 4 4 5 6 5 5 5 5 5 6 6 8 9 9 7 6 6 6 6 5 5 4 3 2 1 1 2 2 2 2 2 2 2 2 3 3 3
0 0 0 1 1 1 1 2 2 3 3 3 4 4 5 5 5 4 4 4 5 5 5 6 7 6 5 4 4 4 3 2 2 3 2 2 1 2 2 2 2 2 2 2 2 2 3 2 2
0 0 0 0 1 1 1 2 3 3 3 4 5 5 5 6 5 4 4 4 4 4 4 4 4 4 3 3 2 2 2 1 2 2 2 1 1 1 2 2 2 2 2 2 2 3 3 2 2
0 0 0 0 1 1 1 2 3 3 3 4 5 5 5 6 5 4 3 3 3 3 3 3 3 3 2 2 2 2 1 1 1 2 2 1 1 1 2 2 2 2 3 3 3 3 3 3 2
0 0 0 0 0 1 1 2 3 2 3 4 4 4 5 5 5 4 3 3 3 3 2 2 2 2 2 1 2 2 1 1 1 2 2 2 1 1 2 2 2 3 3 3 3 3 3 3 2
0 0 0 0 0 0 0 1 2 2 2 3 3 3 4 4 4 3 2 3 3 2 2 2 2 2 2 2 2 2 1 1 1 2 2 2 1 1 2 2 2 2 3 3 3 3 3 2 2
0 0 0 0 1 0 0 1 1 1 1 2 2 2 3 3 3 2 2 2 2 2 2 2 3 3 2 2 1 1 1 1 1 1 1 1 1 2 2 2 2 2 2 2 2 2 2 2 2
0 0 0 1 1 0 0 1 1 1 1 1 1 2 2 3 3 3 3 2 2 1 1 2 3 3 3 2 2 1 1 1 1 1 1 1 1 2 2 2 2 2 2 2 2 2 2 2 2
0 0 0 1 0 0 1 1 1 0 0 1 1 2 2 3 3 3 2 2 1 1 1 2 3 3 3 2 2 2 1 1 1 1 1 1 1 1 2 2 2 2 2 2 2 3 2 2 2
0 0 0 0 0 0 1 1 1 0 0 1 1 2 2 2 2 2 2 1 1 1 1 2 3 3 3 3 2 2 2 2 2 1 1 1 1 1 1 2 2 3 3 3 3 3 3 3 3
0 0 0 0 0 0 0 0 0 0 0 1 1 1 1 2 2 2 1 1 1 1 1 2 3 3 3 3 3 2 2 2 2 2 2 2 1 1 1 1 2 2 3 3 3 3 3 2 2
0 0 0 0 0 0 0 0 0 0 0 0 1 1 1 1 2 2 1 1 1 1 1 2 2 3 3 3 3 2 2 2 3 3 2 2 1 1 1 1 1 1 2 2 2 2 2 2 2
0 0 0 0 0 0 0 0 0 0 0 0 0 1 1 1 1 2 2 2 1 1 1 2 2 2 2 2 2 2 2 2 3 2 2 2 1 1 1 1 1 1 1 1 1 2 2 2 2

GEFSSGP_con_maxscp_120.txt.gz
SCP
1 0 0 0 1 1 1 1 0 0 0 1 1 1 1 1 1 1 1 1 2 2 4 4 3 2 1 1 1 1 1 1 1 0 0 0 0 0 0 0 0 0 0 0 0 0 0 0 0
0 0 0 0 1 1 1 1 0 0 1 1 1 2 2 2 2 1 1 1 2 2 3 3 2 2 1 1 1 1 1 1 1 1 0 0 0 0 0 0 0 0 0 0 0 0 0 0 0
0 0 0 0 1 1 1 1 0 1 1 1 2 2 3 2 2 2 2 2 2 2 2 2 2 2 1 1 1 1 1 1 1 1 1 0 0 0 0 0 0 0 0 0 0 0 0 0 0
0 0 0 1 0 1 1 1 1 1 2 2 3 4 3 2 2 2 2 2 3 2 2 2 2 2 1 1 1 1 1 1 1 1 1 1 1 0 0 0 0 0 0 0 0 0 0 0 0
1 1 1 0 0 0 1 1 1 2 3 4 6 6 5 3 3 2 2 2 3 2 2 2 2 2 2 1 1 1 1 1 1 1 1 1 1 1 0 0 0 0 0 0 0 0 0 0 0
1 1 1 0 0 0 1 2 2 3 4 6 7 8 6 4 3 3 3 3 3 3 2 2 2 2 2 1 1 1 1 1 1 1 1 1 1 1 0 0 0 0 0 0 0 0 0 0 0
0 0 0 0 0 1 1 2 3 4 5 6 6 6 6 4 4 4 4 4 3 3 2 2 2 2 2 2 2 1 1 1 1 1 1 1 1 1 1 1 1 1 1 1 0 0 0 0 0
0 0 0 0 0 1 1 2 3 4 5 5 5 5 5 5 5 5 5 5 4 3 2 2 1 1 2 2 2 2 1 1 1 1 1 1 1 1 1 1 1 1 1 1 1 0 0 0 0
0 0 0 0 0 1 1 2 3 4 6 6 6 6 6 7 7 7 6 5 3 2 2 2 2 2 2 2 2 1 1 1 1 1 1 1 1 1 1 1 1 1 1 1 1 1 1 1 1
0 0 0 0 0 1 1 2 3 4 6 7 7 7 7 7 8 8 8 5 3 2 2 2 3 2 1 1 1 1 1 1 1 1 1 1 1 1 1 1 1 1 1 1 1 1 1 1 1
0 0 0 1 1 1 2 3 4 5 5 6 7 7 7 7 7 8 8 6 3 2 2 2 2 2 1 1 1 1 1 1 1 1 1 1 1 1 1 1 1 1 1 1 1 1 1 1 1
0 0 0 1 2 2 2 3 5 5 5 5 6 6 6 7 7 8 7 6 4 3 3 2 2 2 2 1 1 1 1 1 1 1 1 1 1 1 1 1 1 1 1 1 1 1 1 1 1
0 0 0 1 2 2 3 4 5 6 6 6 6 6 7 7 7 8 7 6 4 4 3 3 3 2 2 1 1 1 1 1 1 1 1 1 1 1 1 1 1 1 1 1 1 1 1 1 1
0 0 0 1 1 2 3 3 4 7 8 8 7 6 7 7 8 7 6 4 4 4 4 3 3 2 2 1 1 1 1 1 1 2 2 2 1 1 1 1 1 1 1 1 1 1 1 1 1
0 0 0 0 1 1 2 2 4 6 8 9 8 7 7 7 7 6 4 3 3 4 3 3 3 2 2 1 1 1 1 1 1 1 2 1 1 1 1 1 1 1 1 1 1 1 1 1 1
0 0 0 0 0 1 1 1 2 4 6 8 8 8 7 7 6 5 4 3 3 3 3 3 2 2 2 2 2 1 1 1 1 1 1 1 1 1 1 0 0 0 0 1 1 1 1 1 1
0 0 0 0 0 0 1 1 1 2 5 8 10 9 7 6 5 4 3 3 3 3 3 2 2 2 2 2 2 2 2 2 2 1 1 1 1 0 0 0 0 0 0 0 0 1 1 1 1
0 0 0 0 0 0 1 1 1 2 5 9 11 9 6 5 4 4 3 3 3 3 2 2 2 1 1 1 1 2 2 1 1 1 1 0 0 0 0 0 0 0 0 0 0 0 0 1 1
0 0 0 0 0 0 1 1 1 2 5 9 11 8 5 4 4 4 3 3 2 2 2 2 1 1 1 1 1 1 1 1 1 1 0 0 0 0 0 0 0 0 0 0 0 0 0 0 0
0 0 0 0 0 0 1 1 1 2 5 8 9 7 4 4 4 4 4 3 2 2 2 2 1 1 1 1 1 1 0 0 0 0 0 0 0 0 0 0 0 0 0 0 0 0 0 0 0
0 0 0 0 0 0 1 1 1 2 4 5 5 5 4 5 5 4 4 3 2 2 1 1 1 1 0 0 0 0 0 0 0 0 0 0 0 0 0 0 0 0 0 0 0 0 0 0 0
0 0 0 0 0 0 0 1 1 1 2 2 2 3 3 4 3 3 3 3 2 1 1 1 1 1 0 0 0 0 0 0 0 0 0 0 0 0 0 0 0 0 0 0 0 0 0 0 0
0 0 0 0 0 0 0 0 1 1 1 1 1 2 2 2 2 2 2 2 1 1 1 1 1 0 0 0 0 0 0 0 0 0 0 0 0 0 0 0 0 0 0 0 0 0 0 0 0
0 0 0 0 0 0 0 0 0 0 1 1 1 1 2 2 1 1 1 1 1 1 0 0 0 0 0 0 0 0 0 0 0 0 0 0 0 0 0 0 0 0 0 0 0 0 0 0 0
0 0 0 0 0 0 0 0 0 0 0 0 1 1 1 1 1 1 1 1 1 0 0 0 0 0 0 0 0 0 0 0 0 0 0 0 0 0 0 0 0 0 0 0 0 0 0 0 0
0 0 0 0 0 0 0 0 0 0 0 0 0 0 1 1 1 1 1 0 0 0 0 0 0 0 0 0 0 0 0 0 0 0 0 0 0 0 0 0 0 0 0 0 0 0 0 0 0
0 0 0 0 0 0 0 0 0 0 0 0 0 0 0 0 0 0 0 0 0 0 0 0 0 0 0 0 0 0 0 0 0 0 0 0 0 0 0 0 0 0 0 0 0 0 0 0 0
0 0 0 0 0 0 0 0 0 0 0 0 0 0 0 0 0 0 0 0 0 0 0 0 0 0 0 0 0 0 0 0 1 1 0 0 0 0 0 0 0 0 0 0 0 0 0 0 0
0 0 0 0 0 0 0 0 0 0 0 0 0 0 0 0 0 0 0 0 0 0 0 0 0 0 0 1 1 1 0 0 0 0 0 0 0 0 0 0 0 0 0 0 0 0 0 0 0
0 0 0 0 0 0 0 0 0 0 0 0 0 0 0 0 0 0 0 0 0 0 0 0 0 0 1 1 1 1 0 0 0 0 0 0 0 0 0 0 0 0 0 0 0 0 0 0 0

GEFSSGP_con_maxscp_126.txt.gz
SCP
1 0 0 0 0 0 0 0 0 0 0 1 1 2 2 2 1 1 1 1 2 3 3 3 3 3 2 2 1 1 1 1 1 1 1 1 1 1 1 0 0 0 0 0 0 0 0 0 0
1 0 0 0 0 0 0 0 0 0 0 1 1 2 2 2 1 1 1 1 2 3 3 4 4 3 2 2 2 2 1 1 1 1 1 1 1 1 1 1 0 0 0 0 0 0 0 0 0
0 0 0 0 0 0 0 0 0 0 1 1 1 1 1 1 1 1 1 2 3 3 3 4 4 3 2 2 2 2 1 1 1 1 1 1 1 1 1 1 0 0 0 0 0 0 0 0 0
0 0 0 1 0 0 0 1 1 1 1 1 2 2 2 1 2 2 3 3 4 5 4 4 4 4 2 2 2 2 1 1 1 1 1 1 1 1 1 1 0 0 0 0 0 0 0 0 0
0 1 1 1 0 0 0 1 1 1 2 2 2 2 2 2 2 3 4 5 6 6 4 4 5 4 3 2 2 2 1 1 1 1 1 1 1 1 1 1 1 0 0 0 0 0 0 0 0
0 1 1 1 0 0 1 1 1 2 2 2 3 2 2 2 2 3 4 6 7 5 4 4 4 4 3 2 2 1 1 1 1 1 1 1 1 1 1 1 1 1 0 0 0 1 1 0 0
0 0 1 0 0 0 1 1 2 3 3 2 2 2 2 2 2 3 4 5 5 4 3 3 3 3 3 2 1 1 1 1 1 1 1 1 1 1 1 1 1 1 0 0 1 1 1 1 1
0 0 0 0 0 0 1 1 2 3 3 3 3 3 2 2 3 3 3 3 3 3 3 3 3 3 3 2 1 1 1 1 1 1 1 1 1 1 1 1 1 1 0 0 0 1 1 1 1
0 0 0 0 0 1 1 1 2 3 4 4 4 4 4 4 4 4 3 3 3 3 3 3 3 2 2 2 1 1 1 1 1 1 1 1 1 1 1 1 1 1 1 1 1 1 1 1 1
0 0 0 0 0 1 1 1 2 5 6 5 5 5 5 5 5 5 5 5 4 4 4 4 3 3 2 2 2 1 1 1 1 1 1 1 1 1 1 1 1 1 1 1 1 1 1 1 1
0 0 0 0 0 1 2 2 3 5 6 5 5 5 6 6 6 6 6 6 5 4 4 4 4 3 2 2 2 2 1 1 1 1 1 1 1 1 1 1 1 1 1 1 1 1 1 1 2
0 0 0 0 1 1 2 2 3 4 5 5 5 5 5 5 6 7 7 6 4 3 3 3 4 3 2 2 2 2 2 1 1 1 1 1 1 1 1 1 1 1 1 1 1 1 1 2 2
0 0 0 0 1 1 2 2 2 3 4 5 6 6 5 5 5 6 5 3 2 2 2 2 2 2 1 1 1 1 2 2 2 1 1 2 1 1 1 1 1 1 1 1 1 1 1 1 1
0 0 0 1 1 1 1 2 2 3 6 7 7 6 5 5 5 5 4 3 3 2 2 2 2 1 1 1 1 2 3 2 2 2 2 2 2 1 1 1 1 1 1 1 1 1 1 1 1
0 0 0 0 0 1 1 2 2 4 8 9 8 6 4 4 4 4 4 4 3 2 2 2 1 1 1 1 1 2 4 3 2 2 2 2 2 1 1 1 1 1 1 1 1 1 1 1 1
0 0 0 0 0 0 1 1 2 5 9 10 7 4 3 3 4 3 3 4 3 2 1 1 1 1 1 1 1 2 2 2 1 1 1 1 1 1 1 1 1 1 1 0 0 0 0 0 0
0 0 0 0 0 0 0 1 2 4 8 8 5 3 3 3 3 2 3 4 3 2 1 1 1 1 1 1 1 1 1 1 1 1 1 1 1 1 1 1 0 1 0 0 0 0 0 0 0
0 0 0 0 0 0 0 1 2 4 7 6 3 2 3 3 3 3 3 3 2 1 1 1 1 1 1 1 1 1 1 1 1 1 1 1 1 1 0 0 1 0 0 0 0 0 0 0 0
0 0 0 0 0 0 1 1 2 4 5 3 2 2 3 3 3 3 3 3 2 1 1 1 1 1 1 1 1 1 0 0 1 1 1 1 1 0 0 0 0 0 0 0 0 0 0 0 0
0 0 0 0 0 0 1 1 2 2 3 2 1 2 2 3 3 3 3 2 1 1 1 1 0 0 1 1 1 0 0 0 0 0 0 1 1 0 0 0 0 0 0 0 0 0 0 0 0
0 0 0 0 0 0 0 1 1 1 1 1 1 1 2 2 3 3 3 2 1 1 1 0 0 0 0 1 0 0 0 0 0 0 0 0 0 0 0 0 0 0 0 0 0 0 0 0 0
0 0 0 0 0 0 0 0 0 1 1 1 1 2 2 2 3 3 3 2 1 1 1 0 0 0 0 0 0 0 0 0 0 0 0 0 0 0 0 0 0 0 0 0 0 0 0 0 0
0 0 0 0 0 0 0 0 0 0 0 0 1 2 2 2 2 3 2 2 1 1 1 0 0 0 0 0 0 0 0 0 0 0 0 0 0 0 0 0 0 0 0 0 0 0 0 0 0
0 0 0 0 0 0 0 0 0 0 0 0 1 2 3 3 2 2 2 1 0 0 0 0 0 0 0 0 0 0 0 0 0 0 0 0 0 0 0 0 0 0 0 0 0 0 0 0 0
0 0 0 0 0 0 0 0 0 0 0 0 0 2 3 4 2 1 1 0 0 0 0 0 0 0 0 0 0 0 0 0 0 0 0 0 0 0 0 0 0 0 0 0 0 0 0 0 0
0 0 0 0 0 0 0 0 0 0 0 0 0 1 3 4 3 1 0 0 0 0 0 0 0 0 0 0 0 0 0 0 0 0 0 0 0 0 0 0 0 0 0 0 0 0 0 0 0
0 0 0 0 0 0 0 0 0 0 0 0 0 1 2 3 2 1 0 0 0 0 0 0 0 0 0 0 0 0 0 0 0 0 0 0 0 0 0 0 0 0 0 0 0 0 0 0 0
0 0 0 0 0 0 0 0 0 0 0 0 0 0 1 1 1 1 0 0 0 0 0 0 0 0 0 0 0 0 0 0 0 0 0 0 0 0 0 0 0 0 0 0 0 0 0 0 0
0 0 0 0 0 0 0 0 0 0 0 0 0 0 0 0 0 0 0 0 0 0 0 0 0 0 0 0 0 0 0 0 0 0 0 0 0 0 0 0 0 0 0 0 0 0 0 0 0
0 0 0 0 0 0 0 0 0 0 0 0 0 0 0 0 0 0 0 0 0 0 0 0 0 0 0 0 0 0 0 0 0 0 0 0 0 0 0 0 0 0 0 0 0 0 0 0 0

GEFSSGP_con_maxscp_132.txt.gz
SCP
0 0 0 0 0 0 0 0 0 0 0 1 1 1 1 1 1 1 1 1 1 1 1 1 1 2 2 2 2 2 2 2 2 1 1 1 1 0 0 0 0 0 0 0 0 0 0 0 0
0 0 0 0 0 0 0 0 0 0 1 1 1 1 1 1 2 2 1 1 1 1 2 1 1 2 2 2 2 2 2 2 2 1 1 1 1 0 0 0 0 0 0 0 0 0 0 0 0
0 0 0 0 0 0 0 0 0 1 1 1 1 1 1 2 2 2 1 1 1 1 2 2 2 2 2 2 2 2 1 1 1 1 1 1 1 0 0 0 0 0 0 0 0 0 0 0 0
0 0 0 0 0 0 0 0 0 1 1 1 1 1 1 2 2 2 2 1 1 1 2 2 2 1 1 2 2 2 1 1 1 1 1 1 1 0 0 0 0 0 0 0 0 0 0 0 0
0 0 0 0 0 0 1 1 1 0 0 1 1 1 2 3 3 3 2 1 1 1 2 2 2 1 1 1 1 1 1 1 1 1 1 1 1 1 0 0 0 0 0 0 0 0 0 0 0
0 0 0 0 0 0 1 1 1 0 0 1 1 1 2 4 4 3 2 2 2 1 1 2 1 1 1 1 1 1 1 1 1 1 1 1 1 1 0 0 0 0 0 0 0 1 1 0 0
0 0 0 0 0 0 1 1 1 0 1 1 1 2 3 4 4 3 3 3 2 2 2 1 1 1 1 1 1 1 1 1 1 1 1 1 1 1 1 0 0 0 0 0 0 1 0 0 0
0 0 0 0 0 0 1 1 1 1 1 1 1 2 3 3 3 3 3 3 2 2 2 2 1 1 1 1 1 1 1 1 1 1 1 1 1 1 1 0 0 0 0 0 0 0 0 0 0
0 0 0 0 0 0 1 1 1 1 1 1 2 2 3 3 4 4 3 3 3 2 2 2 1 1 1 1 1 1 1 1 1 1 1 1 1 1 1 1 1 1 0 0 0 0 0 0 0
0 0 0 0 0 0 1 1 1 1 1 1 2 3 3 4 4 4 4 3 3 3 2 2 2 1 1 1 1 1 1 1 1 1 1 1 1 1 1 1 1 1 1 1 1 1 1 1 1
0 0 0 0 0 0 0 1 1 1 1 1 2 3 4 4 4 4 3 3 4 3 3 2 2 2 2 2 2 2 1 1 1 1 1 1 1 1 1 1 1 1 1 1 1 1 1 1 1
0 0 0 0 1 1 1 1 1 1 1 2 2 3 4 4 4 4 4 5 5 4 4 3 3 2 2 2 2 2 2 1 1 1 1 1 1 1 1 1 1 1 1 2 1 1 1 1 1
0 0 0 0 1 1 1 1 1 1 2 2 3 3 4 4 4 4 5 6 6 5 5 4 3 3 3 3 2 2 2 2 2 1 1 1 1 1 1 1 2 2 2 2 2 1 1 1 1
0 0 0 0 1 1 1 1 1 1 2 2 3 3 4 4 4 4 4 5 5 4 4 4 4 3 3 3 2 2 2 2 2 1 1 2 2 2 2 2 2 2 2 2 2 1 1 1 1
0 0 0 0 0 1 1 1 1 1 1 2 2 3 4 4 4 3 4 3 3 3 3 3 3 3 3 3 2 2 1 1 1 1 1 1 1 1 2 1 1 1 1 1 1 1 1 1 1
0 0 0 0 0 0 0 1 1 1 2 2 2 3 3 3 3 3 3 3 3 3 3 3 3 3 3 2 2 2 1 1 1 1 1 1 1 1 1 1 1 1 2 2 1 1 1 1 1
0 0 0 0 0 0 0 1 1 1 1 2 2 2 3 3 3 3 3 3 3 3 3 3 3 3 3 2 2 2 2 1 1 1 1 1 1 1 1 1 1 2 2 2 2 2 2 1 1
0 0 0 0 0 0 0 1 1 1 1 2 2 2 2 3 3 3 3 4 4 4 4 4 4 4 3 3 2 2 2 1 1 1 1 1 1 0 0 1 1 2 2 2 2 2 2 1 1
0 0 0 0 0 0 0 1 1 1 1 1 1 1 2 3 3 4 4 4 4 4 4 4 4 3 3 3 2 2 2 1 1 1 1 0 0 0 0 1 1 1 1 1 2 2 2 2 1
0 0 0 0 0 0 1 1 1 1 1 1 1 1 2 2 3 3 4 4 3 3 3 4 3 2 2 3 2 2 2 1 1 0 0 0 0 0 0 0 0 0 0 1 1 1 2 1 1
0 0 0 0 0 0 0 0 1 1 1 1 2 2 2 2 2 3 3 3 3 3 3 3 3 2 2 2 2 2 2 1 1 0 0 0 0 0 0 0 0 0 0 1 1 1 1 1 1
0 0 0 0 0 0 0 0 1 1 1 1 2 2 2 2 2 2 3 3 4 4 4 3 3 2 2 1 1 1 1 1 0 0 0 0 0 0 0 0 1 1 1 1 1 1 1 0 0
0 0 0 0 0 0 0 0 0 1 1 1 2 2 2 2 2 2 3 4 4 4 4 3 2 2 1 1 1 1 1 1 0 0 0 0 0 0 0 0 1 1 0 0 1 1 0 0 0
0 0 0 0 0 0 0 0 0 0 1 1 2 2 2 2 3 3 3 4 4 3 3 2 2 2 1 1 1 1 0 1 0 0 0 0 0 0 0 0 0 0 0 0 0 0 0 0 0
0 0 0 0 0 0 0 0 0 0 0 1 1 2 2 2 3 3 4 4 3 3 2 2 2 1 1 0 0 0 0 0 0 0 0 0 0 0 0 0 0 0 0 0 0 0 0 0 0
0 0 0 0 0 0 0 0 0 0 0 1 1 1 2 2 3 3 4 3 3 3 2 2 1 1 1 0 0 0 0 0 0 0 0 0 0 0 0 0 0 0 0 0 0 0 0 1 1
0 0 0 0 0 0 0 0 0 0 0 1 1 1 1 2 2 3 3 3 3 2 2 1 1 1 1 0 1 0 0 0 0 0 0 0 0 0 0 0 0 0 1 1 1 1 1 1 1
0 0 0 0 0 0 0 0 0 0 0 1 1 1 1 1 2 2 3 3 2 2 1 1 1 1 1 1 1 1 1 1 1 0 0 0 0 1 1 1 1 1 1 1 1 1 1 1 1
0 0 0 0 0 0 0 0 0 0 0 1 1 1 1 1 2 2 2 2 2 1 1 1 1 1 0 1 1 1 1 1 1 1 1 1 1 1 1 1 0 0 0 0 0 0 0 1 1
0 0 0 0 0 0 0 0 0 0 0 1 1 1 1 1 2 2 2 2 1 1 1 1 1 0 0 1 1 1 1 1 1 1 1 1 1 1 1 0 0 0 0 0 0 0 0 0 1

GEFSSGP_con_maxscp_138.txt.gz
SCP
0 1 1 1 1 2 1 1 0 0 1 1 1 1 1 2 2 2 2 4 5 4 3 3 2 2 1 1 1 0 0 0 0 0 0 0 0 0 0 0 0 0 0 0 0 0 0 0 0
0 0 1 1 1 1 1 0 1 1 1 1 1 1 1 2 2 2 2 4 4 3 2 2 2 2 1 1 1 1 0 0 0 0 0 0 0 0 0 0 0 0 0 0 0 0 0 0 0
0 0 0 1 1 1 0 0 1 1 1 1 1 1 2 3 3 2 2 3 4 4 3 2 2 2 2 1 1 1 1 1 1 1 1 0 0 0 0 0 0 0 0 0 0 0 0 0 0
0 0 0 0 0 0 0 1 1 1 1 1 1 2 3 4 3 3 2 4 5 5 3 2 2 2 2 2 1 1 1 1 1 1 1 0 0 0 0 0 0 0 0 0 0 0 0 0 0
0 0 0 0 0 0 0 1 1 1 1 1 2 3 4 4 4 3 3 5 7 6 4 3 2 2 2 2 2 1 1 1 1 1 1 0 0 0 0 0 0 0 0 0 0 0 0 0 0
0 0 0 0 0 0 0 0 1 1 1 1 2 4 4 4 4 4 4 6 8 7 5 4 3 2 2 2 2 2 1 1 1 1 1 0 0 0 0 0 0 0 0 0 0 0 0 0 0
0 0 0 0 0 0 0 0 1 2 2 2 3 5 5 4 4 6 7 8 9 7 5 4 3 2 2 2 2 2 1 1 1 1 1 0 0 0 0 0 1 1 0 0 0 0 0 0 0
0 0 0 0 0 0 0 1 1 2 3 3 4 6 6 4 4 6 8 9 8 7 5 4 3 2 2 2 2 1 1 1 1 1 1 1 1 0 1 1 1 1 0 0 0 0 0 0 0
0 0 0 0 0 0 1 1 2 3 3 4 5 7 6 4 4 6 8 8 7 6 4 4 3 2 2 1 1 1 1 1 1 1 1 1 1 1 1 1 1 1 1 0 0 0 0 0 0
0 0 0 0 0 1 1 2 2 3 4 5 7 7 5 4 4 5 6 7 7 6 5 5 4 3 2 2 2 1 1 1 1 1 1 1 1 1 1 1 2 1 1 0 0 0 0 0 0
0 0 0 0 0 1 1 2 2 3 4 5 6 6 4 4 4 6 6 6 7 6 5 5 5 4 3 3 2 2 2 1 1 1 1 1 1 1 1 2 2 2 1 1 1 1 0 0 0
0 0 0 0 0 1 1 1 2 2 3 3 4 5 5 6 8 9 8 8 8 7 6 6 5 5 5 4 3 2 2 2 1 1 1 1 1 2 2 2 2 2 1 1 1 1 1 1 1
0 0 0 0 0 1 1 1 2 2 2 2 3 5 6 9 11 11 10 10 10 9 8 7 7 7 7 6 4 3 2 2 2 2 2 2 2 2 2 2 1 1 1 1 1 1 1 1 1
0 0 0 0 1 1 1 1 1 2 3 3 4 6 8 10 11 11 10 11 10 9 9 9 8 8 8 6 4 3 3 3 3 3 3 2 2 2 2 1 1 1 1 1 1 1 1 1 1
0 0 0 0 1 1 0 1 2 2 3 3 5 8 10 10 10 9 10 10 10 9 9 9 8 7 7 6 4 4 4 3 3 3 2 2 2 2 2 1 1 1 1 1 1 1 1 1 1
0 0 0 0 1 0 0 1 2 3 3 4 7 10 10 9 9 9 10 10 10 9 9 8 7 6 5 5 4 4 4 4 3 2 2 1 1 1 1 1 1 1 1 1 1 1 1 1 1
0 0 0 0 0 0 1 2 2 3 3 5 8 9 8 7 8 10 11 11 10 9 9 8 6 5 5 4 5 5 5 4 3 2 1 1 1 1 1 1 1 1 1 1 1 1 1 1 1
0 0 0 0 0 0 1 2 3 2 3 5 8 8 6 5 6 8 10 10 9 8 7 7 6 5 5 5 5 5 5 4 3 2 1 1 1 1 1 1 1 1 1 1 1 1 1 1 1
0 0 0 0 0 0 1 1 2 2 3 5 7 7 6 5 5 7 8 8 8 7 7 6 6 5 5 4 4 4 3 3 2 2 1 1 1 1 0 0 0 1 1 1 1 1 0 0 0
0 0 0 0 0 0 1 1 1 2 2 4 6 6 6 5 6 8 9 8 8 7 7 7 6 6 5 4 4 3 2 2 1 1 1 1 1 1 0 0 0 0 0 0 0 0 0 0 0
0 0 0 0 0 0 1 1 1 2 2 4 5 6 6 6 7 8 9 9 8 7 7 6 6 6 5 4 4 3 2 1 1 1 1 1 1 0 0 0 0 0 0 0 0 0 0 0 0
0 0 0 0 0 0 1 1 1 2 2 3 4 5 6 6 7 8 8 8 6 5 5 5 5 6 5 5 4 3 2 2 1 1 1 1 1 0 0 0 0 0 0 0 0 0 0 0 0
0 0 0 0 0 0 1 1 1 2 3 4 5 6 5 5 5 7 7 6 5 4 4 5 6 6 6 5 5 4 2 1 2 2 2 1 1 0 0 0 0 0 0 0 0 0 0 0 0
0 0 0 0 0 1 1 1 1 2 3 4 6 6 5 4 4 5 6 5 4 4 4 5 7 7 7 6 5 4 2 2 2 2 1 1 0 0 0 0 0 0 0 0 0 0 0 0 0
0 0 0 0 1 1 1 1 1 1 2 4 7 7 4 3 3 5 5 5 4 4 4 5 6 6 6 5 4 3 3 2 1 1 1 1 0 0 0 0 0 0 0 0 0 0 0 0 0
0 0 0 0 0 0 1 1 1 1 2 4 6 5 3 2 3 4 5 5 5 4 4 5 5 4 4 3 3 3 3 2 1 1 1 1 0 0 0 0 0 0 0 0 0 0 0 0 1
0 0 1 1 0 0 1 1 1 1 1 3 4 3 2 1 2 3 5 6 6 5 4 4 4 3 3 3 2 2 2 2 1 1 1 1 1 1 1 0 0 0 0 0 0 0 1 1 1
0 0 1 1 1 0 0 1 1 1 1 2 2 1 1 1 1 3 5 6 6 5 4 4 3 3 3 2 2 2 2 2 1 1 1 1 1 1 1 1 1 1 1 1 1 1 1 1 1
0 1 1 1 1 0 0 1 1 1 1 1 1 1 1 1 1 2 5 7 7 6 5 4 3 3 3 2 2 2 2 2 1 2 2 1 1 1 1 1 1 1 1 1 1 1 0 1 1
0 1 1 1 1 0 0 0 1 1 1 1 1 1 1 1 1 2 5 7 8 7 6 4 3 3 3 2 2 2 2 2 1 2 2 1 1 1 1 1 1 1 1 1 1 0 0 0 0

GEFSSGP_con_maxscp_144.txt.gz
SCP
1 1 0 0 1 1 0 0 1 1 1 2 2 3 3 2 2 1 1 2 3 4 4 3 3 2 1 1 1 1 1 0 0 0 0 0 0 0 0 0 0 0 0 0 0 0 0 0 0
1 0 0 0 1 0 0 0 1 1 2 2 3 4 3 2 2 2 2 2 3 3 3 3 3 2 2 1 1 1 1 1 0 0 0 0 0 0 0 0 0 0 0 0 0 0 0 0 0
0 0 0 0 0 0 0 0 1 1 2 3 5 5 4 3 3 2 2 2 3 3 3 3 3 2 2 2 1 1 1 1 0 0 0 0 0 0 0 0 0 0 0 0 0 0 0 0 0
0 0 0 0 0 0 0 1 1 2 3 5 6 6 4 4 4 3 3 3 3 3 3 3 3 2 2 2 2 1 1 1 0 0 0 0 0 0 0 0 0 0 0 0 0 0 0 0 0
0 0 0 0 0 0 1 1 2 3 5 7 8 7 6 5 5 4 3 3 3 3 3 3 3 3 3 3 2 1 1 1 1 0 0 0 0 0 0 0 0 0 0 0 0 0 0 0 0
0 0 0 0 0 0 1 1 3 5 7 8 8 7 6 5 5 5 4 4 3 3 3 3 3 3 4 3 2 1 1 1 1 1 1 1 0 0 0 0 0 0 0 0 0 0 0 0 0
0 0 0 0 0 0 1 2 3 5 6 7 7 6 5 5 5 5 5 4 3 3 3 3 3 3 4 3 2 1 1 2 1 1 1 1 1 0 0 0 0 0 0 0 0 0 0 0 0
0 0 0 0 0 0 1 2 3 3 4 6 6 5 4 4 5 5 5 4 3 3 3 3 2 3 3 2 1 1 1 1 1 1 1 1 1 0 0 0 0 1 0 0 0 0 0 0 0
0 0 0 0 0 0 1 2 2 3 4 6 7 6 5 5 6 5 5 4 4 3 3 2 2 2 2 2 1 1 1 1 1 1 1 1 0 0 0 1 1 1 1 0 0 0 0 0 0
0 0 0 0 0 1 1 2 3 3 4 7 8 8 6 6 6 6 6 5 5 3 3 2 2 2 2 2 1 1 1 1 1 1 1 0 0 0 0 0 1 1 1 0 0 0 0 0 0
0 0 0 0 1 1 1 2 2 3 4 6 9 8 7 7 7 7 7 6 5 4 3 2 2 2 2 2 1 1 1 1 1 1 0 0 0 0 0 0 0 0 0 0 0 0 0 0 0
0 0 0 0 1 1 1 2 2 3 4 5 7 7 7 7 8 9 8 6 5 4 3 2 2 2 2 1 1 1 0 0 0 0 0 0 0 0 0 1 0 0 0 0 1 1 0 0 1
0 0 0 1 1 1 1 1 2 3 4 5 5 6 7 8 9 10 9 7 5 4 3 2 2 2 1 1 1 0 0 0 0 0 0 0 0 0 0 1 0 0 0 0 0 0 0 0 0
0 0 0 0 1 1 1 1 2 3 4 5 5 6 7 8 9 9 8 7 5 4 3 3 2 2 2 1 1 0 0 0 0 0 0 0 0 0 0 0 0 0 0 0 0 0 0 0 0
0 0 0 0 1 1 1 1 2 4 5 6 7 7 7 7 7 7 6 5 4 3 3 3 2 2 2 1 1 1 0 0 0 0 0 0 0 0 0 0 0 0 0 0 0 0 0 0 0
0 0 0 0 1 1 2 2 3 5 7 8 9 9 8 6 6 6 5 4 3 3 3 3 3 2 2 1 1 1 1 0 0 0 0 0 0 0 0 0 0 0 0 0 0 0 0 0 0
0 0 0 0 1 2 2 2 3 5 8 8 9 9 7 6 6 6 7 7 5 3 3 3 3 2 2 2 1 1 1 1 1 1 1 1 1 0 0 0 0 0 0 0 0 0 0 0 0
0 0 0 0 1 2 2 2 3 5 7 8 8 8 7 7 7 7 8 10 7 4 4 4 3 3 2 2 2 2 2 2 2 1 1 1 1 0 0 0 0 0 0 0 0 0 0 0 0
0 0 0 0 1 2 2 2 3 5 6 7 7 8 9 10 10 9 8 8 7 5 4 4 4 3 3 2 2 2 2 2 2 1 1 1 1 0 0 0 0 0 0 0 0 0 0 0 0
0 0 0 0 1 1 2 2 3 4 6 6 7 9 11 13 13 10 8 7 7 6 5 4 4 4 3 2 2 2 2 2 2 1 1 1 0 0 0 0 0 0 0 0 0 0 0 0 0
0 0 0 0 0 1 1 2 2 4 6 6 7 7 9 13 14 11 9 9 9 7 5 4 4 4 3 3 2 2 2 1 1 1 1 0 0 0 0 0 0 0 0 0 0 0 0 0 0
0 0 0 0 0 0 1 1 1 3 4 5 5 5 6 10 12 11 10 10 8 7 5 4 4 4 4 3 2 1 1 1 1 1 0 0 0 0 0 0 0 0 0 0 0 0 0 0 0
0 0 0 0 0 0 0 0 1 2 2 3 3 3 3 5 7 8 9 9 7 5 5 4 4 4 4 3 2 1 1 1 1 1 0 0 0 0 0 0 0 0 0 0 0 0 0 0 0
0 0 0 0 0 0 0 0 0 1 1 2 3 3 3 3 4 5 6 7 5 5 5 4 4 4 4 3 2 1 1 1 1 1 0 0 0 0 0 0 0 0 0 0 0 0 0 0 0
0 0 0 0 0 0 0 0 0 1 1 2 3 3 3 3 3 4 5 5 5 5 5 4 4 4 4 3 2 1 1 1 1 0 0 0 0 0 0 0 0 0 0 0 0 0 0 0 0
0 0 0 0 0 0 0 0 0 1 1 2 2 3 2 2 3 3 4 4 5 5 5 4 3 4 4 3 2 1 1 0 0 0 0 0 0 0 0 0 0 0 0 0 0 0 0 0 0
0 0 0 0 0 0 0 0 0 1 1 1 1 1 2 2 3 3 3 3 3 4 4 3 3 4 4 3 2 1 0 0 0 0 0 0 0 0 0 0 0 0 0 0 0 0 0 0 0
0 0 0 0 0 0 0 0 0 0 0 0 0 1 1 2 3 3 2 2 2 3 3 3 2 3 3 3 2 1 0 0 0 0 0 0 0 0 0 0 0 0 0 0 0 0 0 0 0
0 0 0 0 0 0 0 0 0 0 0 0 0 0 1 2 3 3 2 1 2 3 3 2 2 2 2 2 1 1 0 0 0 1 1 0 0 0 0 0 0 0 0 0 0 0 0 0 0
0 0 0 0 0 0 0 0 0 0 0 0 0 0 0 1 2 2 2 2 2 3 3 2 2 1 1 1 1 1 1 1 1 1 1 1 0 0 0 0 0 0 0 0 0 0 0 0 0